COSMOS 2251 DEB, 34909

Orbit data source: Space-Track

COSMOS 2251 DEB, 34909 is space debris in LEO originally from a launch on Wed, 16 Jun 1993 UTC launched from the Plesetsk Missile And Space Complex (PKMTR). The debris from Iridium 33, an American commercial communications satellite, has been tracked extensively since its accidental collision with the defunct Russian satellite Cosmos 2251 in 2009. This event, occurring at high speed in low Earth orbit (LEO), generated thousands of pieces of space debris, significantly increasing the risk of further collisions. The Iridium 33 debris cloud has impacted space traffic management and orbital debris mitigation strategies, making it a subject of ongoing study in space situational awareness.

Loading next visibility...
Identifier
34909, 1993-036ADE
Orbit
LEO
Country
Flag of CISCIS
Related business
Manufacturer
Unknown
Mission
Spacecraft
Bus & Motor
Unknown
Mass
Unknown
Launch date (UTC)
1993-06-16 (33 years ago)
Launch vehicle
Unknown
Launch site
Plesetsk Missile And Space Complex (PKMTR)
Object type
Payload
Rocket body
Debris
Shape & HBR
Unknown shape, 0.1 m
Radar Cross Section
Medium (>0.1 m² and <1 m²)

Expand to show TLE details & history
Last TLE update: 2 days ago

TLE from 2 days ago
0 COSMOS 2251 DEB
1 34909U 93036ADE 26206.66598089  .00003229  00000-0  41544-3 0  9990
2 34909  74.0140 353.8135 0081633  71.1506 289.8500 14.79219714701760
Epoch: 2026-07-25T15:59Z
TLE epoch observation values (Epoch: 2026-07-25T15:59:00.748Z)
Latitude
-0.00005°
Longitude
170.68538°
Altitude
615.431 km
Speed
7.562 km/s
True Right ascension
23h 35m 15s
True Declination
0° 00' 00"
Sunlit
Object was in full shadow at epoch
Visualization orbit readout
Latitude
Unknown
Longitude
Unknown
Altitude
Unknown
Speed
Unknown
Apparent Right ascension
Unknown
Apparent Declination
Unknown
Sunlit
N/A
Visualization observer readout
Local Sidereal Time
18:08:33
Azimuth
Unknown
Elevation
Unknown
Doppler factor
Unknown
Orbital elements
Apogee altitude
686.571 km
Perigee altitude
572.162 km
Semi-major axis
7,007.503 km
Eccentricity
0.00816
Inclination
74.014°
RAAN
353.8135°
Arg. of periapsis
71.1506°
True anomaly
288.96711°
Mean anomaly
289.85°
Eccentric anomaly
289.40886°
Mean motion
3.69997 °/min
Orbital period
97.3 mins
BSTAR
0.00041544
Loading maneuver chart data...
Computing Atmospheric mass density...

Documentation

Showing up to 5 results
|